Time,TemperatureF,DewpointF,PressureIn,WindDirection,WindDirectionDegrees,WindSpeedMPH,WindSpeedGustMPH,Humidity,HourlyPrecipIn,Conditions,Clouds,dailyrainin,SoftwareType,DateUTC
2013-01-20 00:10:00,20.1,19.6,29.62,North,0,0.0,-999.0,98,-99.99,,,0.00,Acu-Link.com,2013-01-20 05:10:00,
2013-01-20 00:25:00,20.1,19.6,29.59,North,0,0.0,-999.0,98,-99.99,,,0.00,Acu-Link.com,2013-01-20 05:25:00,
2013-01-20 00:40:00,20.1,19.6,29.59,North,0,0.0,-999.0,98,-99.99,,,0.00,Acu-Link.com,2013-01-20 05:40:00,
2013-01-20 00:55:00,20.1,19.6,29.58,North,0,0.0,-999.0,98,-99.99,,,0.00,Acu-Link.com,2013-01-20 05:55:00,
2013-01-20 01:10:00,20.1,19.6,29.58,North,0,0.0,-999.0,98,-99.99,,,0.00,Acu-Link.com,2013-01-20 06:10:00,
2013-01-20 01:26:00,20.1,19.6,29.56,North,0,0.0,-999.0,98,-99.99,,,0.00,Acu-Link.com,2013-01-20 06:26:00,
2013-01-20 01:41:00,20.1,19.6,29.56,North,0,0.0,-999.0,98,-99.99,,,0.00,Acu-Link.com,2013-01-20 06:41:00,
2013-01-20 01:56:00,20.1,19.6,29.55,North,0,0.0,-999.0,98,-99.99,,,0.00,Acu-Link.com,2013-01-20 06:56:00,
2013-01-20 02:11:00,20.1,19.6,29.54,North,0,0.0,-999.0,98,-99.99,,,0.00,Acu-Link.com,2013-01-20 07:11:00,
2013-01-20 02:27:00,20.1,19.6,29.52,North,0,0.0,-999.0,98,-99.99,,,0.00,Acu-Link.com,2013-01-20 07:27:00,
2013-01-20 02:42:00,20.1,19.6,29.52,North,0,0.0,-999.0,98,-99.99,,,0.00,Acu-Link.com,2013-01-20 07:42:00,
2013-01-20 02:57:00,20.1,19.6,29.51,North,0,0.0,-999.0,98,-99.99,,,0.00,Acu-Link.com,2013-01-20 07:57:00,
2013-01-20 03:12:00,20.1,19.6,29.47,North,0,0.0,-999.0,98,-99.99,,,0.00,Acu-Link.com,2013-01-20 08:12:00,
2013-01-20 03:27:00,20.1,19.6,29.45,North,0,0.0,-999.0,98,-99.99,,,0.00,Acu-Link.com,2013-01-20 08:27:00,
2013-01-20 03:43:00,20.1,19.6,29.43,North,0,0.0,-999.0,98,-99.99,,,0.00,Acu-Link.com,2013-01-20 08:43:00,
2013-01-20 03:58:00,20.1,19.6,29.42,North,0,0.0,-999.0,98,-99.99,,,0.00,Acu-Link.com,2013-01-20 08:58:00,
2013-01-20 04:15:00,20.1,19.6,29.40,North,0,0.0,-999.0,98,-99.99,,,0.00,Acu-Link.com,2013-01-20 09:15:00,
2013-01-20 04:30:00,20.1,19.6,29.39,North,0,0.0,-999.0,98,-99.99,,,0.00,Acu-Link.com,2013-01-20 09:30:00,
2013-01-20 04:45:00,20.1,19.6,29.37,North,0,0.0,-999.0,98,-99.99,,,0.00,Acu-Link.com,2013-01-20 09:45:00,
2013-01-20 05:00:00,20.1,19.6,29.33,North,0,0.0,-999.0,98,-99.99,,,0.00,Acu-Link.com,2013-01-20 10:00:00,
2013-01-20 05:16:00,20.1,19.6,29.31,North,0,0.0,-999.0,98,-99.99,,,0.00,Acu-Link.com,2013-01-20 10:16:00,
2013-01-20 05:31:00,20.1,19.6,29.30,North,0,0.0,-999.0,98,-99.99,,,0.00,Acu-Link.com,2013-01-20 10:31:00,
2013-01-20 05:46:00,20.1,19.6,29.29,North,0,0.0,-999.0,98,-99.99,,,0.00,Acu-Link.com,2013-01-20 10:46:00,
2013-01-20 06:01:00,20.1,19.6,29.26,North,0,0.0,-999.0,98,-99.99,,,0.00,Acu-Link.com,2013-01-20 11:01:00,
2013-01-20 06:16:00,20.1,19.6,29.25,North,0,0.0,-999.0,98,-99.99,,,0.00,Acu-Link.com,2013-01-20 11:16:00,
2013-01-20 06:32:00,20.1,19.6,29.26,North,0,0.0,-999.0,98,-99.99,,,0.00,Acu-Link.com,2013-01-20 11:32:00,
2013-01-20 06:47:00,20.1,19.6,29.25,North,0,0.0,-999.0,98,-99.99,,,0.00,Acu-Link.com,2013-01-20 11:47:00,
2013-01-20 07:02:00,28.8,28.3,29.23,North,0,0.0,-999.0,98,-99.99,,,0.00,Acu-Link.com,2013-01-20 12:02:00,
2013-01-20 07:17:00,28.8,28.3,29.22,North,0,0.0,-999.0,98,-99.99,,,0.00,Acu-Link.com,2013-01-20 12:17:00,
2013-01-20 07:32:00,28.8,28.3,29.21,North,0,0.0,-999.0,98,-99.99,,,0.00,Acu-Link.com,2013-01-20 12:32:00,
2013-01-20 07:48:00,28.8,28.3,29.21,North,0,0.0,-999.0,98,-99.99,,,0.00,Acu-Link.com,2013-01-20 12:48:00,
2013-01-20 08:03:00,28.8,28.3,29.21,North,0,0.0,-999.0,98,-99.99,,,0.00,Acu-Link.com,2013-01-20 13:03:00,
2013-01-20 08:18:00,32.5,32.0,29.21,WSW,247,0.0,-999.0,98,-99.99,,,0.00,Acu-Link.com,2013-01-20 13:18:00,
2013-01-20 08:33:00,32.5,32.0,29.24,North,0,0.0,-999.0,98,-99.99,,,0.00,Acu-Link.com,2013-01-20 13:33:00,
2013-01-20 08:48:00,32.4,31.9,29.26,SSW,202,0.0,-999.0,98,-99.99,,,0.00,Acu-Link.com,2013-01-20 13:48:00,
2013-01-20 09:04:00,32.7,32.2,29.27,SSW,202,0.0,-999.0,98,-99.99,,,0.00,Acu-Link.com,2013-01-20 14:04:00,
2013-01-20 09:19:00,32.9,32.4,29.28,SSW,202,0.0,-999.0,98,-99.99,,,0.00,Acu-Link.com,2013-01-20 14:19:00,
2013-01-20 09:34:00,32.7,32.2,29.29,WSW,247,0.0,-999.0,98,-99.99,,,0.00,Acu-Link.com,2013-01-20 14:34:00,
2013-01-20 09:49:00,32.7,32.2,29.29,SW,225,0.0,-999.0,98,-99.99,,,0.00,Acu-Link.com,2013-01-20 14:49:00,
2013-01-20 10:04:00,32.7,32.2,29.29,SSW,202,0.0,-999.0,98,-99.99,,,0.00,Acu-Link.com,2013-01-20 15:04:00,
2013-01-20 10:20:00,32.4,31.9,29.30,SW,225,0.0,-999.0,98,-99.99,,,0.00,Acu-Link.com,2013-01-20 15:20:00,
2013-01-20 10:35:00,31.6,31.1,29.30,ESE,112,2.7,-999.0,98,-99.99,,,0.00,Acu-Link.com,2013-01-20 15:35:00,
2013-01-20 10:50:00,30.4,29.9,29.33,SSW,202,5.1,-999.0,98,-99.99,,,0.00,Acu-Link.com,2013-01-20 15:50:00,
2013-01-20 11:05:00,27.5,27.0,29.34,SSW,202,3.8,-999.0,98,-99.99,,,0.00,Acu-Link.com,2013-01-20 16:05:00,
2013-01-20 11:20:00,28.0,27.5,29.33,South,180,2.7,-999.0,98,-99.99,,,0.00,Acu-Link.com,2013-01-20 16:20:00,
2013-01-20 11:36:00,28.9,28.4,29.33,SSW,202,3.1,-999.0,98,-99.99,,,0.00,Acu-Link.com,2013-01-20 16:36:00,
2013-01-20 11:51:00,28.9,26.1,29.36,South,180,4.3,-999.0,89,-99.99,,,0.00,Acu-Link.com,2013-01-20 16:51:00,
2013-01-20 12:06:00,30.2,23.9,29.37,SSE,157,4.3,-999.0,77,-99.99,,,0.00,Acu-Link.com,2013-01-20 17:06:00,
2013-01-20 12:21:00,26.8,21.7,29.37,North,0,4.3,-999.0,81,-99.99,,,0.00,Acu-Link.com,2013-01-20 17:21:00,
2013-01-20 12:36:00,27.1,19.3,29.38,North,0,8.9,-999.0,72,-99.99,,,0.00,Acu-Link.com,2013-01-20 17:36:00,
2013-01-20 12:52:00,30.4,21.1,29.39,South,180,5.8,-999.0,68,-99.99,,,0.00,Acu-Link.com,2013-01-20 17:52:00,
2013-01-20 13:07:00,25.0,19.1,29.42,North,0,3.1,-999.0,78,-99.99,,,0.00,Acu-Link.com,2013-01-20 18:07:00,
2013-01-20 13:22:00,23.5,17.1,29.43,South,180,4.3,-999.0,76,-99.99,,,0.00,Acu-Link.com,2013-01-20 18:22:00,
2013-01-20 13:37:00,24.6,15.6,29.45,North,0,2.2,-999.0,68,-99.99,,,0.00,Acu-Link.com,2013-01-20 18:37:00,
2013-01-20 13:52:00,20.3,13.1,29.47,NE,45,4.7,-999.0,73,-99.99,,,0.00,Acu-Link.com,2013-01-20 18:52:00,
2013-01-20 14:08:00,17.6,10.1,29.50,SSE,157,2.2,-999.0,72,-99.99,,,0.00,Acu-Link.com,2013-01-20 19:08:00,
2013-01-20 14:23:00,16.9,8.5,29.51,SSE,157,2.2,-999.0,69,-99.99,,,0.00,Acu-Link.com,2013-01-20 19:23:00,
2013-01-20 14:38:00,14.4,4.4,29.54,SSE,157,3.8,-999.0,64,-99.99,,,0.00,Acu-Link.com,2013-01-20 19:38:00,
2013-01-20 14:53:00,13.5,4.3,29.56,South,180,3.8,-999.0,66,-99.99,,,0.00,Acu-Link.com,2013-01-20 19:53:00,
2013-01-20 15:08:00,12.6,3.7,29.58,WSW,247,4.7,-999.0,67,-99.99,,,0.00,Acu-Link.com,2013-01-20 20:08:00,
2013-01-20 15:24:00,10.0,1.0,29.60,SE,135,5.8,-999.0,66,-99.99,,,0.00,Acu-Link.com,2013-01-20 20:24:00,
2013-01-20 15:39:00,8.4,-0.6,29.64,North,0,4.3,-999.0,66,-99.99,,,0.00,Acu-Link.com,2013-01-20 20:39:00,
2013-01-20 15:54:00,7.9,-0.8,29.65,WSW,247,0.0,-999.0,67,-99.99,,,0.00,Acu-Link.com,2013-01-20 20:54:00,
2013-01-20 16:09:00,6.1,-3.1,29.66,WSW,247,6.3,-999.0,65,-99.99,,,0.00,Acu-Link.com,2013-01-20 21:09:00,
2013-01-20 16:24:00,5.4,-3.2,29.69,SW,225,3.8,-999.0,67,-99.99,,,0.00,Acu-Link.com,2013-01-20 21:24:00,
2013-01-20 16:40:00,4.3,-3.9,29.70,North,0,4.7,-999.0,68,-99.99,,,0.00,Acu-Link.com,2013-01-20 21:40:00,
2013-01-20 16:55:00,3.7,-4.1,29.72,North,0,0.0,-999.0,69,-99.99,,,0.00,Acu-Link.com,2013-01-20 21:55:00,
2013-01-20 17:10:00,3.4,-4.5,29.73,North,0,1.6,-999.0,69,-99.99,,,0.00,Acu-Link.com,2013-01-20 22:10:00,
2013-01-20 17:25:00,3.2,-4.0,29.75,North,0,2.2,-999.0,71,-99.99,,,0.00,Acu-Link.com,2013-01-20 22:25:00,
2013-01-20 17:40:00,3.0,-4.2,29.75,North,0,3.1,-999.0,71,-99.99,,,0.00,Acu-Link.com,2013-01-20 22:40:00,
2013-01-20 17:56:00,3.0,-4.2,29.76,North,0,2.7,-999.0,71,-99.99,,,0.00,Acu-Link.com,2013-01-20 22:56:00,
2013-01-20 18:11:00,2.7,-4.9,29.77,North,0,3.8,-999.0,70,-99.99,,,0.00,Acu-Link.com,2013-01-20 23:11:00,
2013-01-20 18:26:00,2.5,-5.0,29.79,North,0,1.6,-999.0,70,-99.99,,,0.00,Acu-Link.com,2013-01-20 23:26:00,
2013-01-20 18:56:00,2.5,-4.7,29.81,South,180,2.7,-999.0,71,-99.99,,,0.00,Acu-Link.com,2013-01-20 23:56:00,
2013-01-20 19:12:00,2.1,-5.1,29.82,North,0,2.2,-999.0,71,-99.99,,,0.00,Acu-Link.com,2013-01-21 00:12:00,
2013-01-20 19:27:00,1.6,-5.3,29.83,SW,225,4.3,-999.0,72,-99.99,,,0.00,Acu-Link.com,2013-01-21 00:27:00,
2013-01-20 19:42:00,1.6,-5.9,29.84,SW,225,0.0,-999.0,70,-99.99,,,0.00,Acu-Link.com,2013-01-21 00:42:00,
2013-01-20 19:57:00,1.2,-6.2,29.84,SW,225,2.2,-999.0,70,-99.99,,,0.00,Acu-Link.com,2013-01-21 00:57:00,
2013-01-20 20:12:00,0.7,-7.1,29.84,WSW,247,3.8,-999.0,69,-99.99,,,0.00,Acu-Link.com,2013-01-21 01:12:00,
2013-01-20 20:28:00,0.5,-7.8,29.85,WSW,247,5.8,-999.0,67,-99.99,,,0.00,Acu-Link.com,2013-01-21 01:28:00,
2013-01-20 20:43:00,-0.2,-8.2,29.86,WSW,247,3.8,-999.0,68,-99.99,,,0.00,Acu-Link.com,2013-01-21 01:43:00,
2013-01-20 20:58:00,-0.2,-7.9,29.86,WSW,247,1.1,-999.0,69,-99.99,,,0.00,Acu-Link.com,2013-01-21 01:58:00,
2013-01-20 21:13:00,-0.8,-8.4,29.87,WSW,247,3.8,-999.0,69,-99.99,,,0.00,Acu-Link.com,2013-01-21 02:13:00,
2013-01-20 21:29:00,-0.9,-9.2,29.87,WSW,247,3.8,-999.0,67,-99.99,,,0.00,Acu-Link.com,2013-01-21 02:29:00,
2013-01-20 21:44:00,-1.3,-10.2,29.87,North,0,0.0,-999.0,65,-99.99,,,0.00,Acu-Link.com,2013-01-21 02:44:00,
2013-01-20 21:59:00,-1.8,-10.1,29.88,North,0,2.2,-999.0,67,-99.99,,,0.00,Acu-Link.com,2013-01-21 02:59:00,
2013-01-20 22:14:00,-2.2,-9.8,29.89,North,0,2.7,-999.0,69,-99.99,,,0.00,Acu-Link.com,2013-01-21 03:14:00,
2013-01-20 22:29:00,-2.4,-10.0,29.89,North,0,2.2,-999.0,69,-99.99,,,0.00,Acu-Link.com,2013-01-21 03:29:00,
2013-01-20 22:45:00,-2.7,-10.6,29.90,North,0,3.8,-999.0,68,-99.99,,,0.00,Acu-Link.com,2013-01-21 03:45:00,
2013-01-20 23:00:00,-3.3,-11.2,29.90,WSW,247,0.0,-999.0,68,-99.99,,,0.00,Acu-Link.com,2013-01-21 04:00:00,
2013-01-20 23:15:00,-3.5,-11.3,29.92,WSW,247,2.7,-999.0,68,-99.99,,,0.00,Acu-Link.com,2013-01-21 04:15:00,
2013-01-20 23:30:00,-4.2,-12.0,29.91,WSW,247,1.6,-999.0,68,-99.99,,,0.00,Acu-Link.com,2013-01-21 04:30:00,
2013-01-20 23:45:00,-4.9,-12.1,29.92,WSW,247,0.0,-999.0,70,-99.99,,,0.00,Acu-Link.com,2013-01-21 04:45:00,